Time,TemperatureF,DewpointF,PressureIn,WindDirection,WindDirectionDegrees,WindSpeedMPH,WindSpeedGustMPH,Humidity,HourlyPrecipIn,Conditions,Clouds,dailyrainin,SoftwareType,DateUTC
2013-05-23 00:12:00,72.5,69.0,29.76,NNW,346,5.0,-999.0,88,-99.99,,,0.00,weatherlink.com 1.10,2013-05-23 04:12:00,
2013-05-23 01:14:00,71.0,68.0,29.77,NNW,346,3.0,-999.0,90,-99.99,,,0.00,weatherlink.com 1.10,2013-05-23 05:14:00,
2013-05-23 01:28:00,70.8,68.0,29.77,North,360,0.0,-999.0,89,-99.99,,,0.00,weatherlink.com 1.10,2013-05-23 05:28:00,
2013-05-23 01:43:00,70.6,67.0,29.76,North,5,4.0,-999.0,88,-99.99,,,0.00,weatherlink.com 1.10,2013-05-23 05:43:00,
2013-05-23 01:59:00,71.1,66.0,29.76,NNE,14,0.0,-999.0,84,-99.99,,,0.00,weatherlink.com 1.10,2013-05-23 05:59:00,
2013-05-23 02:13:00,71.7,65.0,29.75,NNE,14,3.0,-999.0,80,-99.99,,,0.00,weatherlink.com 1.10,2013-05-23 06:13:00,
2013-05-23 02:28:00,71.5,65.0,29.75,WNW,292,0.0,-999.0,79,-99.99,,,0.00,weatherlink.com 1.10,2013-05-23 06:28:00,
2013-05-23 02:43:00,71.6,66.0,29.75,NNE,26,0.0,-999.0,81,-99.99,,,0.00,weatherlink.com 1.10,2013-05-23 06:43:00,
2013-05-23 02:58:00,71.2,66.0,29.74,NE,42,1.0,-999.0,82,-99.99,,,0.00,weatherlink.com 1.10,2013-05-23 06:58:00,
2013-05-23 03:13:00,70.8,65.0,29.75,North,355,5.0,-999.0,83,-99.99,,,0.00,weatherlink.com 1.10,2013-05-23 07:13:00,
2013-05-23 03:29:00,70.3,65.0,29.75,NE,36,3.0,-999.0,83,-99.99,,,0.00,weatherlink.com 1.10,2013-05-23 07:29:00,
2013-05-23 03:43:00,69.7,65.0,29.75,NE,43,2.0,-999.0,84,-99.99,,,0.00,weatherlink.com 1.10,2013-05-23 07:43:00,
2013-05-23 03:58:00,69.3,64.0,29.75,North,5,3.0,-999.0,83,-99.99,,,0.00,weatherlink.com 1.10,2013-05-23 07:58:00,
2013-05-23 04:13:00,68.8,64.0,29.75,NNW,338,8.0,-999.0,83,-99.99,,,0.00,weatherlink.com 1.10,2013-05-23 08:13:00,
2013-05-23 04:29:00,68.5,63.0,29.76,North,5,5.0,-999.0,82,-99.99,,,0.00,weatherlink.com 1.10,2013-05-23 08:29:00,
2013-05-23 04:43:00,68.1,62.0,29.76,NNW,345,10.0,-999.0,82,-99.99,,,0.00,weatherlink.com 1.10,2013-05-23 08:43:00,
2013-05-23 04:58:00,67.9,62.0,29.76,North,5,4.0,-999.0,82,-99.99,,,0.00,weatherlink.com 1.10,2013-05-23 08:58:00,
2013-05-23 05:13:00,67.5,62.0,29.77,NNE,19,3.0,-999.0,83,-99.99,,,0.00,weatherlink.com 1.10,2013-05-23 09:13:00,
2013-05-23 05:28:00,67.0,62.0,29.76,NNE,25,2.0,-999.0,84,-99.99,,,0.00,weatherlink.com 1.10,2013-05-23 09:28:00,
2013-05-23 05:43:00,66.7,62.0,29.77,NE,34,5.0,-999.0,85,-99.99,,,0.00,weatherlink.com 1.10,2013-05-23 09:43:00,
2013-05-23 05:58:00,66.7,62.0,29.77,NNE,21,5.0,-999.0,85,-99.99,,,0.00,weatherlink.com 1.10,2013-05-23 09:58:00,
2013-05-23 06:13:00,66.8,62.0,29.78,NW,319,0.0,-999.0,85,-99.99,,,0.00,weatherlink.com 1.10,2013-05-23 10:13:00,
2013-05-23 06:29:00,66.7,62.0,29.79,NNE,15,2.0,-999.0,86,-99.99,,,0.00,weatherlink.com 1.10,2013-05-23 10:29:00,
2013-05-23 06:45:00,66.8,63.0,29.79,North,360,3.0,-999.0,87,-99.99,,,0.00,weatherlink.com 1.10,2013-05-23 10:45:00,
2013-05-23 06:59:00,66.9,63.0,29.79,North,5,8.0,-999.0,87,-99.99,,,0.00,weatherlink.com 1.10,2013-05-23 10:59:00,
2013-05-23 07:14:00,67.0,63.0,29.80,NNE,27,4.0,-999.0,87,-99.99,,,0.00,weatherlink.com 1.10,2013-05-23 11:14:00,
2013-05-23 07:29:00,67.5,64.0,29.79,NNW,333,6.0,-999.0,88,-99.99,,,0.00,weatherlink.com 1.10,2013-05-23 11:29:00,
2013-05-23 07:44:00,67.9,64.0,29.79,NE,43,4.0,-999.0,88,-99.99,,,0.00,weatherlink.com 1.10,2013-05-23 11:44:00,
2013-05-23 07:59:00,68.4,65.0,29.80,NE,36,4.0,-999.0,88,-99.99,,,0.00,weatherlink.com 1.10,2013-05-23 11:59:00,
2013-05-23 08:14:00,69.2,66.0,29.80,NE,35,0.0,-999.0,88,-99.99,,,0.00,weatherlink.com 1.10,2013-05-23 12:14:00,
2013-05-23 08:29:00,69.9,65.0,29.80,North,355,7.0,-999.0,85,-99.99,,,0.00,weatherlink.com 1.10,2013-05-23 12:29:00,
2013-05-23 08:44:00,70.2,66.0,29.80,North,9,2.0,-999.0,85,-99.99,,,0.00,weatherlink.com 1.10,2013-05-23 12:44:00,
2013-05-23 08:59:00,71.1,66.0,29.79,North,360,0.0,-999.0,83,-99.99,,,0.00,weatherlink.com 1.10,2013-05-23 12:59:00,
2013-05-23 09:14:00,71.2,66.0,29.80,NNW,347,0.0,-999.0,82,-99.99,,,0.00,weatherlink.com 1.10,2013-05-23 13:14:00,
2013-05-23 09:29:00,71.7,66.0,29.79,North,5,0.0,-999.0,82,-99.99,,,0.00,weatherlink.com 1.10,2013-05-23 13:29:00,
2013-05-23 09:44:00,72.2,66.0,29.79,NE,49,8.0,-999.0,80,-99.99,,,0.00,weatherlink.com 1.10,2013-05-23 13:44:00,
2013-05-23 09:59:00,71.7,65.0,29.79,NNE,22,1.0,-999.0,79,-99.99,,,0.00,weatherlink.com 1.10,2013-05-23 13:59:00,
2013-05-23 10:15:00,71.2,65.0,29.78,North,360,7.0,-999.0,81,-99.99,,,0.00,weatherlink.com 1.10,2013-05-23 14:15:00,
2013-05-23 10:29:00,71.0,65.0,29.78,NE,42,3.0,-999.0,81,-99.99,,,0.00,weatherlink.com 1.10,2013-05-23 14:29:00,
2013-05-23 10:44:00,70.8,65.0,29.79,NNE,32,3.0,-999.0,82,-99.99,,,0.00,weatherlink.com 1.10,2013-05-23 14:44:00,
2013-05-23 10:59:00,71.1,65.0,29.79,North,355,4.0,-999.0,82,-99.99,,,0.00,weatherlink.com 1.10,2013-05-23 14:59:00,
2013-05-23 11:14:00,71.2,66.0,29.79,North,360,7.0,-999.0,82,-99.99,,,0.00,weatherlink.com 1.10,2013-05-23 15:14:00,
2013-05-23 11:29:00,71.2,66.0,29.79,North,5,3.0,-999.0,82,-99.99,,,0.00,weatherlink.com 1.10,2013-05-23 15:29:00,
2013-05-23 11:44:00,71.3,66.0,29.79,North,360,0.0,-999.0,83,-99.99,,,0.00,weatherlink.com 1.10,2013-05-23 15:44:00,
2013-05-23 11:59:00,71.4,66.0,29.79,North,355,4.0,-999.0,83,-99.99,,,0.00,weatherlink.com 1.10,2013-05-23 15:59:00,
2013-05-23 12:14:00,71.3,66.0,29.79,East,84,0.0,-999.0,83,-99.99,,,0.00,weatherlink.com 1.10,2013-05-23 16:14:00,
2013-05-23 12:29:00,71.4,66.0,29.79,NNW,346,0.0,-999.0,84,-99.99,,,0.00,weatherlink.com 1.10,2013-05-23 16:29:00,
2013-05-23 12:44:00,71.6,66.0,29.78,NNE,30,0.0,-999.0,83,-99.99,,,0.00,weatherlink.com 1.10,2013-05-23 16:44:00,
2013-05-23 12:59:00,71.7,66.0,29.78,ENE,71,0.0,-999.0,83,-99.99,,,0.00,weatherlink.com 1.10,2013-05-23 16:59:00,
2013-05-23 13:14:00,71.9,66.0,29.78,NNW,338,0.0,-999.0,82,-99.99,,,0.00,weatherlink.com 1.10,2013-05-23 17:14:00,
2013-05-23 13:29:00,72.1,66.0,29.77,NE,38,0.0,-999.0,82,-99.99,,,0.00,weatherlink.com 1.10,2013-05-23 17:29:00,
2013-05-23 13:45:00,73.4,67.0,29.77,NE,39,0.0,-999.0,80,-99.99,,,0.00,weatherlink.com 1.10,2013-05-23 17:45:00,
2013-05-23 14:00:00,73.0,67.0,29.76,North,355,0.0,-999.0,81,-99.99,,,0.00,weatherlink.com 1.10,2013-05-23 18:00:00,
2013-05-23 14:15:00,72.8,67.0,29.76,North,9,0.0,-999.0,81,-99.99,,,0.00,weatherlink.com 1.10,2013-05-23 18:15:00,
2013-05-23 14:30:00,72.6,67.0,29.76,North,360,0.0,-999.0,83,-99.99,,,0.00,weatherlink.com 1.10,2013-05-23 18:30:00,
2013-05-23 14:45:00,72.3,67.0,29.76,NNE,30,0.0,-999.0,83,-99.99,,,0.00,weatherlink.com 1.10,2013-05-23 18:45:00,
2013-05-23 15:00:00,72.3,67.0,29.76,NE,53,0.0,-999.0,82,-99.99,,,0.00,weatherlink.com 1.10,2013-05-23 19:00:00,
2013-05-23 15:16:00,72.9,67.0,29.75,NE,47,0.0,-999.0,82,-99.99,,,0.00,weatherlink.com 1.10,2013-05-23 19:16:00,
2013-05-23 15:31:00,72.5,67.0,29.75,North,350,0.0,-999.0,82,-99.99,,,0.00,weatherlink.com 1.10,2013-05-23 19:31:00,
2013-05-23 15:45:00,72.0,67.0,29.74,NNE,29,0.0,-999.0,83,-99.99,,,0.00,weatherlink.com 1.10,2013-05-23 19:45:00,
2013-05-23 16:00:00,71.4,66.0,29.74,ENE,63,0.0,-999.0,84,-99.99,,,0.00,weatherlink.com 1.10,2013-05-23 20:00:00,
2013-05-23 16:15:00,70.9,67.0,29.74,North,350,0.0,-999.0,86,-99.99,,,0.00,weatherlink.com 1.10,2013-05-23 20:15:00,
2013-05-23 16:30:00,69.6,67.0,29.75,NNW,348,0.0,-999.0,90,-99.99,,,0.04,weatherlink.com 1.10,2013-05-23 20:30:00,
2013-05-23 16:45:00,69.1,67.0,29.75,NE,51,0.0,-999.0,92,-99.99,,,0.10,weatherlink.com 1.10,2013-05-23 20:45:00,
2013-05-23 17:01:00,68.8,67.0,29.74,NNE,15,0.0,-999.0,94,-99.99,,,0.14,weatherlink.com 1.10,2013-05-23 21:01:00,
2013-05-23 17:15:00,68.6,67.0,29.73,NW,321,0.0,-999.0,94,-99.99,,,0.15,weatherlink.com 1.10,2013-05-23 21:15:00,
2013-05-23 17:30:00,68.5,67.0,29.74,NNE,17,0.0,-999.0,94,-99.99,,,0.17,weatherlink.com 1.10,2013-05-23 21:30:00,
2013-05-23 17:45:00,68.2,67.0,29.73,NNE,24,0.0,-999.0,95,-99.99,,,0.18,weatherlink.com 1.10,2013-05-23 21:45:00,
2013-05-23 18:00:00,67.9,67.0,29.73,North,355,0.0,-999.0,95,-99.99,,,0.19,weatherlink.com 1.10,2013-05-23 22:00:00,
2013-05-23 18:16:00,67.4,66.0,29.73,NNE,31,0.0,-999.0,95,-99.99,,,0.20,weatherlink.com 1.10,2013-05-23 22:16:00,
2013-05-23 18:30:00,67.0,66.0,29.73,North,355,0.0,-999.0,95,-99.99,,,0.20,weatherlink.com 1.10,2013-05-23 22:30:00,
2013-05-23 18:46:00,66.9,66.0,29.73,NNE,27,0.0,-999.0,95,-99.99,,,0.20,weatherlink.com 1.10,2013-05-23 22:46:00,
2013-05-23 19:00:00,66.9,66.0,29.73,WSW,251,0.0,-999.0,95,-99.99,,,0.20,weatherlink.com 1.10,2013-05-23 23:00:00,
2013-05-23 19:15:00,67.0,66.0,29.73,North,5,0.0,-999.0,95,-99.99,,,0.20,weatherlink.com 1.10,2013-05-23 23:15:00,
2013-05-23 19:30:00,67.2,66.0,29.73,NE,44,0.0,-999.0,95,-99.99,,,0.20,weatherlink.com 1.10,2013-05-23 23:30:00,
2013-05-23 19:46:00,67.1,66.0,29.73,North,355,0.0,-999.0,95,-99.99,,,0.20,weatherlink.com 1.10,2013-05-23 23:46:00,
2013-05-23 20:00:00,67.0,65.0,29.73,NE,55,0.0,-999.0,94,-99.99,,,0.20,weatherlink.com 1.10,2013-05-24 00:00:00,
2013-05-23 20:15:00,66.9,65.0,29.72,NNE,18,0.0,-999.0,94,-99.99,,,0.20,weatherlink.com 1.10,2013-05-24 00:15:00,
2013-05-23 20:30:00,66.7,65.0,29.72,North,360,0.0,-999.0,94,-99.99,,,0.20,weatherlink.com 1.10,2013-05-24 00:30:00,
2013-05-23 20:45:00,66.5,65.0,29.72,NE,36,0.0,-999.0,94,-99.99,,,0.20,weatherlink.com 1.10,2013-05-24 00:45:00,
2013-05-23 21:01:00,66.4,64.0,29.72,North,5,0.0,-999.0,93,-99.99,,,0.20,weatherlink.com 1.10,2013-05-24 01:01:00,
2013-05-23 21:16:00,66.3,64.0,29.72,NNE,24,0.0,-999.0,93,-99.99,,,0.20,weatherlink.com 1.10,2013-05-24 01:16:00,
2013-05-23 21:31:00,66.2,64.0,29.72,NE,34,0.0,-999.0,93,-99.99,,,0.20,weatherlink.com 1.10,2013-05-24 01:31:00,
2013-05-23 21:46:00,66.1,64.0,29.73,ENE,63,0.0,-999.0,93,-99.99,,,0.20,weatherlink.com 1.10,2013-05-24 01:46:00,
2013-05-23 22:01:00,66.1,64.0,29.72,North,360,0.0,-999.0,93,-99.99,,,0.20,weatherlink.com 1.10,2013-05-24 02:01:00,
2013-05-23 22:16:00,66.1,64.0,29.73,NNE,21,0.0,-999.0,94,-99.99,,,0.20,weatherlink.com 1.10,2013-05-24 02:16:00,
2013-05-23 22:31:00,66.1,64.0,29.73,North,360,0.0,-999.0,94,-99.99,,,0.20,weatherlink.com 1.10,2013-05-24 02:31:00,
2013-05-23 22:46:00,66.1,64.0,29.72,NE,49,0.0,-999.0,94,-99.99,,,0.20,weatherlink.com 1.10,2013-05-24 02:46:00,
2013-05-23 23:01:00,66.0,64.0,29.72,ENE,74,0.0,-999.0,94,-99.99,,,0.20,weatherlink.com 1.10,2013-05-24 03:01:00,
2013-05-23 23:16:00,66.1,64.0,29.71,NNE,16,0.0,-999.0,94,-99.99,,,0.20,weatherlink.com 1.10,2013-05-24 03:16:00,
2013-05-23 23:31:00,66.0,64.0,29.70,North,5,0.0,-999.0,94,-99.99,,,0.20,weatherlink.com 1.10,2013-05-24 03:31:00,
2013-05-23 23:46:00,66.0,64.0,29.70,ENE,58,0.0,-999.0,94,-99.99,,,0.20,weatherlink.com 1.10,2013-05-24 03:46:00,